Regional Weather Roundup
Issued by NWS

Home | Current Version | Previous Version | Text Only | Print | Product List | Glossary Off
Versions: 1 2 3 4 5 6 7 8 9 10 11 12 13 14 15 16 17 18 19 20 21 22 23 24 25 26 27 28 29 30 31 32 33 34 35 36 37 38 39 40 41 42 43 44 45 46 47 48 49 50

000
ASUS43 KOAX 280802
RWRNE

WEATHER ROUNDUP FOR NEBRASKA
NATIONAL WEATHER SERVICE OMAHA NE
200 AM CST FRI NOV 28 2014

NOTES: SATELLITE DATA IS BEING USED TO AUGMENT CLOUD COVER ABOVE
       12000 FEET.
       "FAIR" INDICATES FEW OR NO CLOUDS BELOW 12,000 FEET WITH NO
       SIGNIFICANT WEATHER AND/OR OBSTRUCTIONS TO VISIBILITY.

  * THESE STATIONS DO NOT REPORT WEATHER SUCH AS RAIN...SNOW OR FOG.

NEZ001>004-019>022-054>056-280900-
NEBRASKA PANHANDLE

CITY           SKY/WX    TMP DP  RH WIND       PRES   REMARKS
SCOTTSBLUFF    CLEAR     30  25  81 E6        29.92F WCI  24
ALLIANCE       CLEAR     28  24  85 W7        29.91F WCI  21
$$

NEZ057>060-069>072-079>082-280900-
SOUTHWEST NEBRASKA

CITY           SKY/WX    TMP DP  RH WIND       PRES   REMARKS
NORTH PLATTE   PTCLDY    23  20  88 NW5       29.93F WCI  17
IMPERIAL       CLEAR     38  26  62 W10       29.96F WCI  31
LEXINGTON      PTCLDY    22  18  85 NW5       29.93S WCI  15
$$

NEZ005>010-023>029-035>040-094-280900-
NORTH CENTRAL NEBRASKA

CITY           SKY/WX    TMP DP  RH WIND       PRES   REMARKS
VALENTINE      PTCLDY    31  27  85 SW6       29.85F WCI  25
BROKEN BOW     CLEAR     23  16  74 CALM      29.90F
ORD            PTCLDY    18  14  84 CALM      29.89F
$$

NEZ041-046>049-061>064-073>077-083>087-280900-
SOUTH CENTRAL NEBRASKA

CITY           SKY/WX    TMP DP  RH WIND       PRES   REMARKS
GRAND ISLAND   PTCLDY    26  19  74 S9        29.94F WCI  17
AURORA         PTCLDY    28  19  68 S7        29.94F WCI  21
HASTINGS       CLEAR     27  18  69 S5        29.93F WCI  22
KEARNEY *      CLEAR     27  19  74 S8        29.94F WCI  18
YORK           PTCLDY    27  19  74 S8        29.96F WCI  18
$$

NEZ011>018-030>034-042>045-280900-
NORTHEAST NEBRASKA

CITY           SKY/WX    TMP DP  RH WIND       PRES   REMARKS
NORFOLK        CLEAR     26  18  71 S8        29.94F WCI  18
BLAIR          CLEAR     27  21  77 S16       29.99F WCI  15
COLUMBUS *     PTCLDY    25  16  68 S5        29.97F WCI  19
TEKAMAH        CLEAR     24  18  77 S12       30.00F WCI  13
$$

NEZ050>053-065>068-078-088>093-280900-
SOUTHEAST NEBRASKA

CITY           SKY/WX    TMP DP  RH WIND       PRES   REMARKS
LINCOLN        CLEAR     26  18  71 S8        30.02F WCI  18
OMAHA EPPLEY   CLEAR     26  20  77 SE13      30.05F WCI  15
FALLS CITY     CLEAR     31  22  69 S13       30.08F WCI  21
PLATTSMOUTH    CLEAR     29  21  72 SE17      30.04F WCI  17
$$

NEZ044-045-051>053-067-280900-
OMAHA AREA

CITY           SKY/WX    TMP DP  RH WIND       PRES   REMARKS
OMAHA EPPLEY   CLEAR     26  20  77 SE13      30.05F WCI  15
BLAIR          CLEAR     27  21  77 S16       29.99F WCI  15
OFFUTT AFB     CLEAR     24  20  84 S6        30.04F WCI  17
PLATTSMOUTH    CLEAR     29  21  72 SE17      30.04F WCI  17
$$


USA.gov is the U.S. government's official web portal to all federal, state and local government web resources and services.